Погода в Успенке

Россия / Тюменская область     57°04′32″N   65°04′37″E
темп.,
°C
ветер,
м/с
пор.,
м/с
влажн.,
%
обл.,
%
осадки,
мм/ч
давл.,
гПа
погр.,
м
20 апреля, вт
вт2023:00−4всв22550 0.0 103421
02:00−5юв11550 0.0 103416
05:00−5юз22535 0.0 103541
08:00−1з343630 0.0 1034440
11:00+4з35295 0.0 10321280
14:00+7з57295 0.0 10291722
17:00+8зсз57335 0.0 10281754
20:00+4з22565 0.0 102729
21 апреля, ср
ср2123:00+2з37645 0.0 1027108
02:00+1зсз38730 0.0 1028141
05:000сз26820 0.0 1029104
08:00+4ссз35675 0.0 1030312
11:00+9с34557 0.0 10311264
14:00+10ссв3448100 0.0 10311710
17:00+9св335076 0.0 10321126
20:00+5в22695 0.0 103439
22 апреля, чт
чт2223:00+3вюв24765 0.0 103566
02:00+2юв22815 0.0 103640
05:00+1юв22835 0.0 103738
08:00+6ююв34635 0.0 1037258
11:00+11ююв45475 0.0 10371106
14:00+14ю46395 0.0 10361858
17:00+15ю4639100 0.0 10351915
20:00+10ююв3759100 0.0 1035143
23 апреля, пт
пт2323:00+8ююв41165100 0.0 1035338
02:00+7ююв4126651 0.0 1035390
05:00+5ююв4116966 0.0 1035283
08:00+8ю4857100 0.0 1035367
11:00+14ю5841100 0.0 10341512
14:00+15ююз5840100 0.0 10332208
17:00+14ююз5745100 0.0 10321752
20:00+11ю4950100 0.0 1032495
24 апреля, сб
сб2423:00+9ююв3957100 0.0 1032283
02:00+7ююв2862100 0.0 1031213
05:00+7ююв2862100 0.0 1030222
08:00+9ююв2358100 0.0 1029141
11:00+11юв3543100 0.0 1028625
14:00+14ююв4733100 0.0 10271673
17:00+13ю3738100 0.0 10262006
20:00+10юв2251100 0.0 102538